Location: Fours
(44.3167°N, 6.7000°E)
Time: 02:09:51
(UTC+00:00)

Cosmos 1934 Rocket - Visible Passes

Search period start: 07 October 2022 00:00
Search period end: 17 October 2022 00:00
Orbit: 938 x 999 km, 83.0° (Epoch: 06 October)

Date Brightness Start Highest point End Pass type
(mag) Time Alt. Az. Time Alt. Az. Time Alt. Az.
07 Oct 5.6 01:51:10 27° N 01:51:10 27° N 01:53:47 10° N visible
07 Oct 5.9 03:35:42 13° NW 03:35:42 13° NW 03:37:06 10° NNW visible
08 Oct 6.6 00:30:05 14° NE 00:30:05 14° NE 00:31:01 10° NNE visible
08 Oct 5.7 02:14:37 23° N 02:14:37 23° N 02:16:57 10° N visible
09 Oct 6.4 00:53:32 17° NNE 00:53:32 17° NNE 00:54:52 10° NNE visible
09 Oct 5.9 02:38:04 18° NNW 02:38:04 18° NNW 02:39:53 10° N visible
10 Oct 6.2 01:16:56 18° NNE 01:16:56 18° NNE 01:18:23 10° NNE visible
10 Oct 6.1 03:01:28 13° NNW 03:01:28 13° NNW 03:02:23 10° NNW visible
11 Oct 6.2 01:40:20 17° N 01:40:20 17° N 01:41:40 10° N visible
12 Oct 6.8 00:19:11 10° NNE 00:19:11 10° NNE 00:19:16 10° NNE visible
12 Oct 6.2 02:03:43 15° N 02:03:43 15° N 02:04:43 10° N visible
13 Oct 6.7 00:42:33 12° NNE 00:42:33 12° NNE 00:42:56 10° NNE visible
13 Oct 6.3 02:27:05 11° NNW 02:27:05 11° NNW 02:27:27 10° NNW visible
14 Oct 6.6 01:05:54 12° N 01:05:54 12° N 01:06:20 10° N visible
15 Oct 6.6 01:29:15 11° N 01:29:15 11° N 01:29:29 10° N visible
